Weather Roundup
Issued by NWS Springfield, MO

Home | Current Version | Previous Version | Text Only | Print | Product List | Glossary On
Versions: 1 2 3 4 5 6 7 8 9 10 11 12 13 14 15 16 17 18 19 20 21 22 23 24 25 26 27 28 29 30 31 32 33 34 35 36 37 38 39 40 41 42 43 44 45 46 47 48 49 50
000
NZUS99 KSGF 222057
HRRSGF

HOURLY WEATHER
NATIONAL WEATHER SERVICE SPRINGFIELD MO
300 PM CST MON JAN 22 2018

......SGF CWA......

CITY           SKY/WX    TMP DP  RH WIND       PRES   REMARKS
SPRINGFIELD    CLOUDY    41  30  65 SW26G43   29.59R
JOPLIN         CLOUDY    40  31  70 W23G40    29.65R WCI  30
WEST PLAINS    CLOUDY    45  27  49 SW20G31   29.64R
ROLLA          CLOUDY    41  28  60 SW22G32   29.56R
BRANSON        CLOUDY    41  27  56 SW16G29   29.67R

......SURROUNDING SGF CWA......

CITY           SKY/WX    TMP DP  RH WIND       PRES   REMARKS
CHANUTE        NOT AVBL
PARSONS        LGT RAIN  36  33  89 W18G30    29.68R FOG     WCI  26
COFFEYVILLE    LGT RAIN  38  32  79 W23G30    29.70R WCI  27
EMPORIA        LGT SNOW  33  29  85 NW17G30   29.60R FOG     WCI  22
HARRISON AR    CLOUDY    44  27  51 W18G30    29.68R

......KANSAS AND MISSOURI......

CITY           SKY/WX    TMP DP  RH WIND       PRES   REMARKS
KANSAS CTY INT FLURRIES  34  32  92 W16G23    29.44R WCI  24
SEDALIA        LGT RAIN  40  36  86 SW23G35   29.48S WCI  30
ST JOSEPH      LGT SNOW  34  34 100 W12       29.42R FOG     WCI  25
ST LOUIS       MOSUNNY   55  27  34 W25G33    29.48R
WICHITA        CLOUDY    40  28  62 NW30G46   29.74R WCI  28
TOPEKA         LGT SNOW  33  31  92 W13G22    29.51R FOG     WCI  24
OLATHE         CLOUDY    33  32  96 W18G28    29.47R WCI  22

......TENNESSEE......

CITY           SKY/WX    TMP DP  RH WIND       PRES   REMARKS
MEMPHIS        NOT AVBL
NASHVILLE      CLOUDY    63  54  72 S18G28    29.71F

......ARKANSAS.......

CITY           SKY/WX    TMP DP  RH WIND       PRES   REMARKS
FAYETTEVILLE   CLOUDY    43  29  57 SW18G33   29.74R
FT SMITH       CLOUDY    49  29  46 W26G37    29.80R
LITTLE ROCK    MOSUNNY   56  29  35 W16G32    29.77S

......OKLAHOMA.......

CITY           SKY/WX    TMP DP  RH WIND       PRES   REMARKS
TULSA          CLOUDY    45  27  49 NW22G33   29.80R
PONCA CITY     CLOUDY    44  26  49 NW22G35   29.81R
MCALESTER      LGT RAIN  50  27  40 W23G33    29.89R
OKLAHOMA CITY  PTSUNNY   48  24  39 NW30G39   29.92R

......IOWA............

CITY           SKY/WX    TMP DP  RH WIND       PRES   REMARKS
DES MOINES     NOT AVBL
QUAD CITIES    FAIR      53  35  50 SW16G24   29.40R

......ILLINOIS........

CITY           SKY/WX    TMP DP  RH WIND       PRES   REMARKS
QUINCY         NOT AVBL
CHICAGO        PTSUNNY   53  48  83 S14       29.44S




USA.gov is the U.S. government's official web portal to all federal, state and local government web resources and services.